TimeHST,TemperatureF,Dew PointF,Humidity,Sea Level PressureIn,VisibilityMPH,Wind Direction,Wind SpeedMPH,Gust SpeedMPH,PrecipitationIn,Events,Conditions,WindDirDegrees,DateUTC
12:53 AM,73.0,62.1,68,30.08,10.0,SE,3.5,-,N/A,,Mostly Cloudy,130,2013-02-10 10:53:00
1:53 AM,72.0,62.1,71,30.07,10.0,East,5.8,-,N/A,,Clear,90,2013-02-10 11:53:00
2:53 AM,71.1,61.0,70,30.06,10.0,East,5.8,-,N/A,,Clear,80,2013-02-10 12:53:00
3:53 AM,69.1,60.1,73,30.05,10.0,NE,8.1,-,N/A,,Clear,50,2013-02-10 13:53:00
4:53 AM,70.0,60.1,71,30.06,10.0,Calm,Calm,-,N/A,,Partly Cloudy,0,2013-02-10 14:53:00
5:53 AM,69.1,59.0,70,30.06,10.0,SE,8.1,-,N/A,,Clear,140,2013-02-10 15:53:00
6:53 AM,69.1,60.1,73,30.09,10.0,ENE,4.6,-,N/A,,Clear,70,2013-02-10 16:53:00
7:53 AM,72.0,61.0,68,30.11,10.0,Calm,Calm,-,N/A,,Clear,0,2013-02-10 17:53:00
8:53 AM,77.0,61.0,58,30.14,10.0,Calm,Calm,-,N/A,,Clear,0,2013-02-10 18:53:00
9:53 AM,78.1,62.1,58,30.14,10.0,NNW,6.9,-,N/A,,Overcast,330,2013-02-10 19:53:00
10:53 AM,78.1,64.0,62,30.14,10.0,WSW,6.9,-,N/A,,Mostly Cloudy,240,2013-02-10 20:53:00
11:53 AM,79.0,64.0,60,30.12,10.0,SW,8.1,-,N/A,,Clear,230,2013-02-10 21:53:00
12:53 PM,80.1,64.0,58,30.09,10.0,WSW,9.2,-,N/A,,Clear,250,2013-02-10 22:53:00
1:53 PM,78.1,64.0,62,30.07,10.0,WSW,8.1,-,N/A,,Mostly Cloudy,240,2013-02-10 23:53:00
2:53 PM,81.0,64.9,58,30.04,10.0,SW,11.5,-,N/A,,Clear,230,2013-02-11 00:53:00
3:53 PM,80.1,64.9,60,30.04,10.0,WSW,11.5,-,N/A,,Clear,240,2013-02-11 01:53:00
4:53 PM,79.0,64.9,62,30.04,10.0,SW,10.4,-,N/A,,Partly Cloudy,220,2013-02-11 02:53:00
5:53 PM,78.1,64.9,64,30.05,10.0,SW,9.2,-,N/A,,Clear,220,2013-02-11 03:53:00
6:53 PM,77.0,64.9,66,30.07,10.0,SW,8.1,-,N/A,,Partly Cloudy,230,2013-02-11 04:53:00
7:53 PM,75.9,64.9,69,30.09,10.0,WSW,3.5,-,N/A,,Scattered Clouds,240,2013-02-11 05:53:00
8:53 PM,75.9,64.9,69,30.10,10.0,Calm,Calm,-,N/A,,Clear,0,2013-02-11 06:53:00
9:53 PM,73.9,64.0,71,30.12,10.0,ESE,6.9,-,N/A,,Clear,110,2013-02-11 07:53:00
10:53 PM,75.0,57.0,53,30.13,10.0,NW,3.5,-,N/A,,Partly Cloudy,320,2013-02-11 08:53:00
11:53 PM,75.0,57.9,55,30.13,10.0,South,6.9,-,N/A,,Clear,170,2013-02-11 09:53:00